[[{"header":{"parameterUnit":"m.s-1","parameterCategory":1,"la1":30.2991,"la2":30.254,"lo1":-89.0895,"lo2":-89.0444,"dy":0.0017,"dx":0.0017,"nx":28,"ny":28,"refTime":"2024-06-16T09:00:00:Z","depth":0,"parameterNumber":2,"parameterNumberName":"U-component_of_WINDS"},"data":[0,0,0,0,0,0,0,0,0,0,0,0,0,0,0,0,0,0,0,0,0,0,0,0,0,0,0,0,0,0,0,0,0,0,0,0,0,0,0,0,0,0,0,0,0,0,0,0,0,0,0,0,0,0,0,0,0,0,-0.0108,-0.0104,0,0.0225,0.0229,0.0233,0.0392,0.0392,0.0391,0.0391,0.0741,0.0751,0.076,0,0,0,0,0,0,0,0,0,0,0,0,0,-0.0596,-0.0588,-0.0108,-0.0104,-0.01,0.0225,0.0229,0.0234,0.0392,0.0392,0.0391,0.0391,0.0738,0.0749,0.0761,0,0,0,0,0,0,0,0,0,0,0,0,0,-0.0336,-0.0585,-0.0109,0.0018,0.0033,0.0224,0.023,0.0235,0.0392,0.0392,0.0391,0.0391,0.0734,0.0748,0.0762,0.0855,0,0,0.0806,0.0812,0,0,0,0,0,0,0,0,-0.0351,-0.0318,-0.0005,0.001,0.0026,0.0267,0.0186,0.0443,0.0392,0.0256,0.0391,0.0391,0.0584,0.0611,0.0674,0.0872,0.0887,0.0807,0.0816,0.0822,0.0826,0,0,0,0,0,0,0,-0.0369,-0.0331,0.0024,-0.0,0.0019,0.0062,0.0099,0.0235,0.0418,0.0268,0.028,0.0317,0.0593,0.066,0.0683,0.0892,0.0807,0.0819,0.0828,0.0834,0.1187,0.1188,0,0,0,0,0,0,-0.0409,-0.0347,0.0014,0.0034,-0.0167,0.0071,0.0112,0.019,0.0417,0.0451,0.0317,0.0323,0.0636,0.0667,0.0696,0.0823,0.0822,0.0835,0.0843,0.1187,0.1188,0.1189,0,0,0,0,0,0,-0.042,-0.0378,0.0,-0.0153,-0.0102,0.0079,0.0166,0.0197,0.0264,0.0453,0.0488,0.0351,0.0637,0.0676,0.0815,0.0837,0.0841,0.0854,0.1186,0.1187,0.1188,0.1074,0,0,0,0,0,0,-0.0435,-0.0383,-0.0349,-0.0154,-0.0094,0.0109,0.0167,0.0203,0.0287,0.0298,0.0495,0.0527,0.064,0.0793,0.0829,0.0857,0.0865,0.1184,0.1186,0.1188,0.1076,0.1071,0.1066,0,0,0,0,0,-0.0453,-0.0393,-0.0348,-0.0305,-0.0048,0.011,0.0145,0.027,0.0288,0.0326,0.0449,0.0521,0.0828,0.0806,0.0848,0.088,0.1184,0.1186,0.1188,0.1079,0.1072,0.1066,0,0,0,0,0,0,-0.0588,-0.0366,-0.0313,-0.0189,-0.006,0.0136,0.0188,0.0259,0.0388,0.0393,0.0547,0.059,0.0715,0.0812,0.0783,0.0984,0.1013,0.1024,0.0916,0.0911,0.0906,0.0881,0.0877,0,0,0,0,0,-0.0605,-0.0498,-0.0307,-0.0216,-0.0154,0.0005,0.0079,0.0164,0.0306,0.0362,0.0495,0.0632,0.076,0.0841,0.0969,0.1091,0.1139,0.1135,0.113,0.1125,0.1132,0.1208,0.1209,0.1195,0.1195,0.1195,0,0,-0.0636,-0.05,-0.0442,-0.024,-0.013,-0.0019,0.005,0.0164,0.0249,0.0381,0.0519,0.0621,0.0785,0.0916,0.0981,0.1001,0.1147,0.1127,0.1121,0.1133,0.121,0.1211,0.1212,0.1196,0.1196,0.1196,0,0,-0.0636,-0.0524,-0.0435,-0.0326,-0.0161,-0.0054,-0.0033,0.0154,0.0226,0.0367,0.0469,0.0575,0.0791,0.0904,0.099,0.1036,0.1109,0.1074,0.1047,0.1119,0.112,0.1122,0.1141,0.1145,0.108,0.108,0.108,0,-0.0695,-0.0528,-0.0397,-0.0289,-0.0202,-0.0079,0.0015,0.0116,0.0315,0.0375,0.0394,0.067,0.0788,0.0949,0.096,0.1025,0.1058,0.1052,0.1109,0.1112,0.1116,0.1136,0.1142,0.1075,0.1075,0.1076,0.1076,0,-0.0606,-0.0492,-0.0439,-0.0251,-0.0157,-0.0057,0.0092,0.0172,0.025,0.0356,0.05,0.0647,0.0808,0.0853,0.0931,0.1027,0.1034,0.1079,0.1111,0.111,0.1131,0.1139,0.1067,0.1069,0.1071,0.1072,0,0,-0.0684,-0.0425,-0.0408,-0.032,-0.0127,-0.0034,0.0074,0.023,0.0297,0.0431,0.0528,0.071,0.0753,0.085,0.0943,0.1006,0.1036,0.1044,0.105,0.1039,0.1154,0.1119,0.1126,0.1085,0.1087,0.1089,0.1141,0,-0.0657,-0.0462,-0.034,-0.0192,-0.0082,0.0038,0.0133,0.0264,0.0366,0.0478,0.0593,0.0719,0.0765,0.0825,0.0893,0.1017,0.1061,0.1016,0.1181,0.1185,0.1136,0.1137,0.11,0.1142,0.115,0.1151,0.1152,0,-0.0599,-0.047,-0.0312,-0.0128,-0.0077,0.0005,0.0159,0.0263,0.0415,0.0486,0.0595,0.0689,0.0813,0.0834,0.1009,0.0975,0.105,0.1122,0.1127,0.1148,0.1168,0.1159,0.1158,0.1164,0.1166,0.1165,0.1164,0,-0.067,-0.0455,-0.0332,-0.0261,-0.0045,0.0011,0.0105,0.0257,0.0343,0.048,0.0538,0.0687,0.0769,0.0885,0.1018,0.1021,0.1181,0.1213,0.1246,0.1242,0.1274,0.127,0.1286,0.132,0.132,0.132,0.132,0,-0.0651,-0.0559,-0.0361,-0.0286,-0.0176,-0.0035,0.007,0.0174,0.0309,0.041,0.0524,0.0617,0.0787,0.0903,0.1008,0.1138,0.1175,0.1238,0.1265,0.1228,0.122,0.128,0.1281,0.1322,0.1321,0.1321,0.132,0,-0.0712,-0.0577,-0.0434,-0.0241,-0.019,-0.0118,0.005,0.013,0.0239,0.0366,0.0404,0.0577,0.0719,0.0863,0.1055,0.1127,0.1255,0.1291,0.1202,0.1218,0.1243,0.1239,0.1298,0.1315,0.1335,0.1334,0.1334,0,-0.071,-0.0636,-0.0435,-0.036,-0.027,-0.0151,-0.0062,0.0082,0.017,0.0351,0.0411,0.0561,0.0688,0.0911,0.1056,0.1205,0.1247,0.1258,0.127,0.1232,0.125,0.1243,0.1253,0.1252,0.1251,0.125,0.125,0,-0.0718,-0.0654,-0.0532,-0.0386,-0.0284,-0.0161,-0.0033,0.0023,0.0192,0.0287,0.0432,0.0531,0.0728,0.0877,0.1043,0.1145,0.1227,0.1245,0.1261,0.1224,0.117,0.1202,0.119,0.1243,0.1244,0.1244,0.1244,0.1245,-0.0745,-0.0673,-0.052,-0.0387,-0.0276,-0.0159,-0.0073,0.0046,0.0169,0.0338,0.0417,0.0564,0.072,0.0951,0.1051,0.1171,0.1193,0.1215,0.1222,0.1225,0.1217,0.115,0.1202,0.1202,0.1203,0.1203,0.1203,0,-0.0747,-0.0642,-0.0521,-0.0347,-0.0241,-0.0175,-0.003,0.0055,0.0182,0.0319,0.0442,0.0611,0.0757,0.0914,0.107,0.1136,0.1178,0.1173,0.117,0.1193,0.1187,0.1159,0.1136,0.1136,0.1136,0.1136,0.1136,0.1136,-0.0735,-0.0609,-0.0526,-0.0342,-0.0235,-0.0094,-0.0016,0.0095,0.0205,0.0388,0.0508,0.0609,0.0756,0.0924,0.1062,0.1105,0.1158,0.1142,0.1196,0.1188,0.1193,0.1197,0.1171,0.1152,0.1152,0.1192,0.1192,0.1192]},{"header":{"parameterUnit":"m.s-1","parameterCategory":1,"la1":30.2991,"la2":30.254,"lo1":-89.0895,"lo2":-89.0444,"dy":0.0017,"dx":0.0017,"nx":28,"ny":28,"refTime":"2024-06-16T09:00:00:Z","depth":0,"parameterNumber":3,"parameterNumberName":"V-component_of_WINDS"},"data":[0,0,0,0,0,0,0,0,0,0,0,0,0,0,0,0,0,0,0,0,0,0,0,0,0,0,0,0,0,0,0,0,0,0,0,0,0,0,0,0,0,0,0,0,0,0,0,0,0,0,0,0,0,0,0,0,0,0,5.106,5.1058,0,5.0911,5.091,5.0908,5.0838,5.0838,5.0838,5.0839,5.0672,5.0668,5.0664,0,0,0,0,0,0,0,0,0,0,0,0,0,5.1267,5.1264,5.106,5.1058,5.1056,5.0912,5.091,5.0908,5.0838,5.0838,5.0839,5.0839,5.0674,5.0669,5.0663,0,0,0,0,0,0,0,0,0,0,0,0,0,5.1154,5.1263,5.106,5.1005,5.0998,5.0912,5.091,5.0907,5.0838,5.0838,5.0839,5.0839,5.0676,5.0669,5.0662,5.0616,0,0,5.0642,5.0639,0,0,0,0,0,0,0,0,5.116,5.1146,5.1015,5.1008,5.1001,5.0894,5.0922,5.0809,5.0838,5.0898,5.0839,5.0839,5.0745,5.0733,5.0704,5.0609,5.0602,5.0641,5.0637,5.0634,5.0632,0,0,0,0,0,0,0,5.1168,5.1152,5.1001,5.1013,5.1004,5.0982,5.0966,5.09,5.0822,5.0893,5.0888,5.0872,5.0741,5.0711,5.0699,5.0599,5.0641,5.0635,5.0631,5.0628,5.0452,5.0452,0,0,0,0,0,0,5.1187,5.1159,5.1005,5.0996,5.1083,5.0978,5.096,5.0928,5.0823,5.0807,5.0872,5.0869,5.0722,5.0707,5.0693,5.0629,5.0634,5.0628,5.0624,5.0453,5.0452,5.0451,0,0,0,0,0,0,5.1192,5.1174,5.1011,5.1076,5.1054,5.0974,5.0938,5.0925,5.0894,5.0807,5.0791,5.0856,5.0722,5.0703,5.0636,5.0622,5.0625,5.0618,5.0453,5.0453,5.0452,5.0503,0,0,0,0,0,0,5.1198,5.1176,5.1162,5.1077,5.1051,5.0962,5.0938,5.0922,5.0884,5.0879,5.0788,5.0772,5.072,5.0646,5.0629,5.0613,5.0613,5.0454,5.0453,5.0452,5.0502,5.0504,5.0506,0,0,0,0,0,5.1206,5.1181,5.1162,5.1144,5.1032,5.0961,5.0946,5.0891,5.0884,5.0866,5.0809,5.0775,5.0627,5.064,5.062,5.0602,5.0455,5.0453,5.0452,5.0501,5.0504,5.0506,0,0,0,0,0,0,5.1263,5.1168,5.1147,5.1094,5.1037,5.095,5.0926,5.0895,5.0835,5.0833,5.0762,5.0741,5.068,5.0634,5.065,5.0549,5.0537,5.0532,5.0582,5.0583,5.0585,5.0596,5.0607,0,0,0,0,0,5.127,5.1225,5.1143,5.1104,5.1077,5.1007,5.0974,5.0936,5.0872,5.0846,5.0784,5.0719,5.0656,5.0617,5.0556,5.0495,5.0471,5.0472,5.0474,5.0476,5.0471,5.043,5.0428,5.0447,5.0447,5.0447,0,0,5.1283,5.1226,5.1201,5.1114,5.1065,5.1015,5.0987,5.0936,5.0896,5.0836,5.077,5.0722,5.0643,5.0579,5.0547,5.0538,5.046,5.0474,5.0476,5.047,5.0429,5.0427,5.0426,5.0446,5.0446,5.0446,0,0,5.1281,5.1235,5.1196,5.1148,5.1075,5.1028,5.1019,5.0936,5.0903,5.0836,5.0789,5.0738,5.0634,5.0579,5.0538,5.0511,5.0476,5.0492,5.0501,5.0462,5.046,5.0459,5.0445,5.0442,5.0488,5.0489,5.0489,0,5.1305,5.1233,5.1179,5.113,5.1091,5.1038,5.0995,5.0949,5.0858,5.0829,5.0822,5.0689,5.0633,5.0552,5.0545,5.0515,5.0497,5.0502,5.0466,5.0464,5.0461,5.0447,5.0443,5.0491,5.0491,5.049,5.049,0,5.1264,5.1214,5.119,5.1108,5.1065,5.102,5.0953,5.0916,5.0881,5.0832,5.0761,5.0692,5.0614,5.0591,5.0556,5.0504,5.05,5.0481,5.0467,5.0463,5.0448,5.0443,5.0494,5.0493,5.0493,5.0492,0,0,5.1295,5.1182,5.1174,5.1134,5.1049,5.1006,5.0955,5.0883,5.085,5.0787,5.0739,5.0651,5.0632,5.0584,5.0541,5.0507,5.0485,5.049,5.0487,5.0489,5.0418,5.0432,5.0427,5.0462,5.0461,5.046,5.0423,0,5.1279,5.1191,5.1139,5.1069,5.1019,5.0966,5.0921,5.086,5.0813,5.0758,5.0703,5.0641,5.0622,5.0593,5.0557,5.0496,5.0469,5.0498,5.041,5.0408,5.0431,5.042,5.0436,5.0405,5.0418,5.0417,5.0416,0,5.1249,5.1192,5.1119,5.1036,5.1012,5.0973,5.09,5.0851,5.0779,5.0745,5.0692,5.0649,5.0586,5.0578,5.0487,5.0508,5.0468,5.0432,5.0429,5.0417,5.0411,5.0405,5.0394,5.0389,5.0407,5.0408,5.0409,0,5.1276,5.1179,5.1122,5.109,5.0992,5.0965,5.0922,5.085,5.0809,5.0743,5.0714,5.064,5.0599,5.0539,5.0474,5.0476,5.0388,5.0376,5.0354,5.0355,5.0337,5.0338,5.0317,5.0316,5.0316,5.0316,5.0316,0,5.1262,5.1219,5.1132,5.1097,5.1044,5.0982,5.093,5.0881,5.0817,5.0767,5.0715,5.0668,5.0586,5.0527,5.0475,5.0404,5.0386,5.0354,5.034,5.0357,5.0361,5.0329,5.0328,5.0314,5.0315,5.0315,5.0315,0,5.1283,5.1224,5.1158,5.1071,5.1048,5.1012,5.0935,5.0895,5.0844,5.0781,5.0762,5.068,5.0607,5.0537,5.0438,5.0402,5.0331,5.0314,5.0357,5.0349,5.033,5.0332,5.0285,5.0274,5.0283,5.0283,5.0283,0,5.1278,5.1243,5.1153,5.1118,5.1077,5.1021,5.0979,5.0914,5.087,5.0783,5.0752,5.0676,5.0612,5.0496,5.0424,5.0347,5.0326,5.0315,5.0313,5.0331,5.0321,5.0323,5.0317,5.0316,5.0316,5.0316,5.0316,0,5.1274,5.1246,5.119,5.1122,5.1074,5.1016,5.0956,5.0928,5.085,5.0803,5.073,5.0681,5.058,5.0503,5.0417,5.0365,5.0325,5.0318,5.0307,5.0324,5.0349,5.0332,5.0359,5.0319,5.0318,5.0318,5.0318,5.0318,5.1279,5.1244,5.1175,5.1112,5.1061,5.1005,5.0963,5.0907,5.0847,5.0764,5.0727,5.0652,5.0573,5.0454,5.0403,5.0339,5.0329,5.0316,5.0312,5.0309,5.0311,5.0361,5.0323,5.0323,5.0322,5.0322,5.0322,0,5.127,5.1222,5.1166,5.1085,5.1033,5.1006,5.0936,5.0894,5.083,5.0763,5.0701,5.0614,5.0538,5.046,5.0377,5.034,5.032,5.0321,5.0321,5.0309,5.0326,5.0342,5.0339,5.0339,5.0339,5.0339,5.0339,5.0339,5.1259,5.1198,5.1161,5.1071,5.1022,5.0952,5.0914,5.086,5.0806,5.0713,5.0651,5.0602,5.0528,5.0439,5.0366,5.0344,5.0314,5.032,5.0292,5.0309,5.0308,5.0308,5.0322,5.0315,5.0315,5.028,5.028,5.028]}]]